Find Starlink 30716

NORAD ID: 57936 Int'l Des: 2023-148 Owner: SPXS Country: US Constellation: starlink operational
LEOCIRCULAR

現在のビュー

3D地球を読み込み中...

About Starlink 30716

Starlink 30716 (NORAD 57936) is a starlink constellation satellite (v2 mini) launched Sep 25, 2023 by SPXS of US. It operates in LEO, CIRCULAR orbit with a mass of 730.00 kg.

Starlink 30716について

説明を読み込み中...

次回通過

Passes for default location (London). Set your location on the main map for personalized predictions.

高度履歴

Loading altitude history...

軌道要素

1 57936U 23148B 26166.56058245 .00000481 00000-0 28364-4 0 9994
2 57936 53.1626 289.8352 0001407 110.5368 249.5784 15.30192993153402
Epoch: Jun 15, 2026 • Age: 9 hours

現在のステータス

高度 476.0 km
速度 7.63 km/s
衛星直下点 3.67°N, 43.33°E
打ち上げ日 Sep 25, 2023
運用期間 2.7 years
タイプ internet

技術仕様

分類 Payload
質量 730.00 kg
乾燥質量 700.00 kg
総質量 730.00 kg
長さ 0.30 m
直径 4.10 m
スパン 29.00 m
形状 Box + pan
製造者 SPXS
バスタイプ Starlink V2M
フェーズステータス In Orbit
所有者/国 SPXS/US

Most Searched